Regional Weather Roundup
Issued by NWS Little Rock, AR

Home | Current Version | Previous Version | Graphics & Text | Print | Product List | Glossary On
Versions: 1 2 3 4 5 6 7 8 9 10 11 12 13 14 15 16 17 18 19 20 21 22 23 24 25 26 27 28 29 30 31 32 33 34 35 36 37 38 39 40 41 42 43 44 45 46 47 48
000
ASUS44 KLZK 032305
RWRLZK

WEATHER ROUNDUP FOR ARKANSAS
NATIONAL WEATHER SERVICE LITTLE ROCK AR
600 PM CDT SUN MAY 03 2015

NOTE: "FAIR" INDICATES FEW OR NO CLOUDS BELOW 12,000 FEET WITH NO
SIGNIFICANT WEATHER AND/OR OBSTRUCTIONS TO VISIBILITY.

ARZ001-003-010-029-040000-
NORTHWEST ARKANSAS

CITY           SKY/WX    TMP DP  RH WIND       PRES   REMARKS
FAYETTEVILLE   PTSUNNY   76  58  53 SE10      29.98S
FORT SMITH     SUNNY     81  53  37 S12       29.95S
HARRISON       MOSUNNY   78  57  48 S12       29.99S
BENTONVILLE    PTSUNNY   79  55  44 S15       29.98S
ROGERS         PTSUNNY   78  57  48 SW13G22   29.98S
SILOAM SPGS    PTSUNNY   75  55  50 S12G18    29.98R
HIGHFILL       PTSUNNY   78  56  46 S15       29.96S
SPRINGDALE     MOSUNNY   77  55  47 S15G23    29.99S
$$

ARZ004-005-016-040000-
NORTH CENTRAL ARKANSAS

CITY           SKY/WX    TMP DP  RH WIND       PRES   REMARKS
BATESVILLE     MOSUNNY   81  55  41 S7        30.00S
FLIPPIN        SUNNY     81  54  39 S6        29.96S
MTN HOME       SUNNY     79  53  40 S8        29.97F
$$

ARZ040-041-040000-
WEST CENTRAL ARKANSAS

CITY           SKY/WX    TMP DP  RH WIND       PRES   REMARKS
MENA           MOSUNNY   81  57  44 SW3       30.01S
MOUNT IDA      SUNNY     79  56  45 VRB7      29.99S
$$

ARZ009-017-025-026-028-040000-
NORTHEAST ARKANSAS

CITY           SKY/WX    TMP DP  RH WIND       PRES   REMARKS
CORNING          N/A     82  54  36 S17       30.00S
JONESBORO      SUNNY     79  54  41 S12       30.01S
NEWPORT        SUNNY     82  54  38 S13       30.01F
WALNUT RIDGE   SUNNY     81  52  36 SW12      30.00S
BLYTHEVILLE    MOSUNNY   80  49  33 S12       30.03S
$$

ARZ022-023-033-042-044-040000-
CENTRAL ARKANSAS

CITY           SKY/WX    TMP DP  RH WIND       PRES   REMARKS
LITTLE ROCK    MOSUNNY   83  53  35 S7        30.00S
N LITTLE ROCK  MOSUNNY   82  58  44 SW9       30.00S
JACKSONVILLE   SUNNY     80  57  44 S5        30.00S
SEARCY         SUNNY     82  58  43 S7        30.01S
HOT SPRINGS    MOSUNNY   81  55  40 SW10      30.00F
RUSSELLVILLE   SUNNY     81  55  40 S10       29.97F
CLINTON        FAIR      81  57  44 SE9       30.00S
$$

ARZ036-040000-
EAST ARKANSAS

CITY           SKY/WX    TMP DP  RH WIND       PRES   REMARKS
WEST MEMPHIS   SUNNY     81  53  37 S8        30.02S
$$

ARZ050-053-066-070-073-040000-
SOUTHWEST ARKANSAS

CITY           SKY/WX    TMP DP  RH WIND       PRES   REMARKS
ARKADELPHIA    FAIR      83  60  45 SW8       30.01S
CAMDEN         PTSUNNY   84  54  34 CALM      30.01S
TEXARKANA      SUNNY     80  58  46 S7        30.00F
EL DORADO      SUNNY     78  56  46 SE6       30.02F
DE QUEEN       MOSUNNY   80  57  45 S12       29.97F
$$

ARZ056-057-069-040000-
SOUTHEAST ARKANSAS

CITY           SKY/WX    TMP DP  RH WIND       PRES   REMARKS
PINE BLUFF     SUNNY     82  55  39 SW10      30.01S
STUTTGART      MOSUNNY   84  54  34 S14       30.01F
MONTICELLO     SUNNY     82  53  36 SW6       30.02S

$$




USA.gov is the U.S. government's official web portal to all federal, state and local government web resources and services.